sat.trackr.live / text

‹ back to catalog

STARLINK-35161

NORAD 65936 · 2025-225AC

PAYLOAD ACTIVE UNKNOWN

§ Identity

Operator
Country
US
Launch date
2025-10-08
Launch site
AFWTR
Launch vehicle
Mass (kg)
RCS (m²)

Purposes: comms

External: N2YO · Heavens-Above · Gunter

§ Orbital elements

Epoch: 2026-09-20T22:09:56.843712Z

Period
93.85 min
Inclination
53.1626°
Eccentricity
0.0001288
Mean motion
15.34404499 rev/d
Perigee alt
461.8 km
Apogee alt
463.6 km
Semi-major
6,840.8 km
B*
4.3918e-4
RAAN
335.6910°
Arg perigee
78.4310°
Mean anomaly
281.6838°
Rev number
5,345

§ Raw data

STARLINK-351611 65936U 25225AC  26263.92357458  .00014493  00000+0  43918-3 0  99952 65936  53.1626 335.6910 0001288  78.4310 281.6838 15.34404499 53459

JSON: /api/v1/satellites/65936 · /tle

For live sub-satellite position, see the globe view (requires WebGL).

§ Visibility from observer

Set your observer location to see the next 7 days of passes ≥ 10°. The values pass through the URL so the page stays shareable.

No JS? Fill the form by hand. The geolocation button needs JavaScript.